Find Starlink 36754

NORAD ID: 67725 Int'l Des: 2026-026 Owner: SPXS Country: US Constellation: starlink operational
LEOCIRCULARRETROGRADE

現在のビュー

3D地球を読み込み中...

Starlink 36754について

説明を読み込み中...

次回通過

Passes for default location (London). Set your location on the main map for personalized predictions.

高度履歴

Loading altitude history...

軌道要素

1 67725U 26026E 26146.14624729 .00004816 00000-0 15139-3 0 9998
2 67725 97.2843 199.6129 0000522 98.0659 262.0643 15.33446139 15991
Epoch: May 26, 2026 • Age: 13 hours

現在のステータス

高度 475.7 km
速度 7.63 km/s
衛星直下点 61.32°N, 98.94°W
打ち上げ日 Feb 11, 2026
運用期間 0.2 years
タイプ internet

技術仕様

分類 Payload
質量 575.00 kg
乾燥質量 530.00 kg
総質量 575.00 kg
長さ 0.30 m
直径 4.10 m
スパン 29.00 m
形状 Box + pan
製造者 SPXS
バスタイプ Starlink V2MO
フェーズステータス In Orbit
所有者/国 SPXS/US

Most Searched